Location: *
(46.4000°N, 12.6667°E)
Time: 00:08:39
(UTC+00:00)

CZ-4C R/B - Pass Details

Date: 22 June 2021
Orbit: 606 x 1396 km, 63.4° (Epoch: 30 July)

Event Time Altitude Azimuth Distance (km) Brightness Sun altitude
Exits shadow 02:16:15 11° 218° (SW) 2,086 3.6 -8.6°
Maximum altitude 02:20:57 89° 307° (NW) 784 2.1 -8.1°
Drops below altitude 10° 02:26:54 10° 39° (NE) 2,600 6.5 -7.4°
Sets 02:29:42 0° 40° (NE) 3,679 8.1 -7.0°
